Location: Newark
(37.0133°S, 81.3511°E)
Time: 13:37:20
(UTC+00:00)

Envisat - Visible Passes

Search period start: 19 January 2020 00:00
Search period end: 29 January 2020 00:00
Orbit: 764 x 766 km, 98.1° (Epoch: 19 January)

Date Brightness Start Highest point End Pass type
(mag) Time Alt. Az. Time Alt. Az. Time Alt. Az.
20 Jan 6.4 23:07:44 10° E 23:10:24 14° ESE 23:13:04 10° SSE visible
21 Jan 6.1 14:35:20 10° SSW 14:38:35 17° WSW 14:41:49 10° WNW visible
23 Jan 6.8 22:57:49 10° ESE 22:59:16 11° ESE 23:00:43 10° SE visible
24 Jan 6.0 14:23:36 10° SSW 14:27:25 22° WSW 14:31:13 10° WNW visible
26 Jan 6.5 14:50:34 10° SW 14:52:34 12° WSW 14:54:35 10° W visible
27 Jan 5.6 14:11:58 10° SSW 14:16:14 27° WSW 14:20:28 10° NW visible
28 Jan 6.3 23:10:16 10° E 23:13:15 16° ESE 23:16:14 10° SSE visible
